Preview of NWS' New Version of Forecast
This preview is not operational and should not be used for support decisions.

Regional Weather Roundup (RWR)

Issued by National Weather Service (NWS)

                            
000
ASUS42 KTBW 210218
RWRFL 
FLORIDA REGIONAL WEATHER ROUNDUP
NATIONAL WEATHER SERVICE TAMPA BAY RUSKIN FL
1000 PM EDT FRI SEP 20 2019

NOTE: "FAIR" INDICATES FEW OR NO CLOUDS BELOW 12,000 FEET WITH NO
SIGNIFICANT WEATHER AND/OR OBSTRUCTIONS TO VISIBILITY.

FLZ001>010-012>015-112-114-115-210300-
PANHANDLE FLORIDA
  
CITY           SKY/WX    TMP DP  RH WIND       PRES   REMARKS
PENSACOLA      FAIR      80  72  76 SE7       30.13R                  
PENSACOLA NAS  FAIR      81  71  71 SE10      30.13R                  
MILTON NAS     FAIR      72  66  81 CALM      30.14R                  
CRESTVIEW      FAIR      72  63  73 CALM      30.16R                  
DUKE FIELD     FAIR      73  66  78 CALM      30.14R                  
VALPARAISO     FAIR      80  68  66 CALM      30.13R                  
MARY ESTHER    PTCLDY    74  69  83 CALM      30.12R                  
TRI COUNTY     FAIR      75  61  61 CALM      30.16R                  
PANAMA CITY    FAIR      71  64  78 N3        30.13R                  
TYNDALL AFB    FAIR      78  65  63 E3        30.12R                  
APALACHICOLA   FAIR      78  66  66 NE5       30.13R                  

STATION/POSITION SKY/WX   TEMP    WIND        PRES    WAVE   SWELL
                          AIR SEA DIR/SP/G            HT/PER HT/PER
                          (F)     (DEG/KT/KT) (MB)    (FT/S) (FT/S)
30.1N   87.6W              83 85  110/ 14/ 19 1020.1R   5/ 7   2/14
29.2N   88.2W              83      90/ 17/ 23 1019.3R   7/ 8
28.8N   86.0W                 85   80/ 19/ 21 1019.2R   5/ 7
PANAMA CITY BEAC           83 84  100/  4/  7 1020.8R
TOWER C                    84      90/ 22/ 23 1020.3R
28.5N   84.5W              83      80/ 19/ 23 1020.2

$$
FLZ011-016>038-118-127-128-134-139-239-210300-
NORTH FLORIDA
  
CITY           SKY/WX    TMP DP  RH WIND       PRES   REMARKS
MARIANNA       FAIR      73  60  63 NE6       30.14S                  
TALLAHASSEE    FAIR      79  65  62 E8        30.16R                  
PERRY          FAIR      76  63  64 E6        30.18R                  
LIVE OAK       MOCLDY    75  68  78 NE8       30.19R                  
CROSS CITY       N/A     75  65  71 CALM      30.17R                  
LAKE CITY      FAIR      72  64  78 NE3       30.19R                  
GAINESVILLE    FAIR      74  66  76 E6        30.20R                  
WILLISTON      FAIR      75  68  79 E3        30.17R                  
PALATKA        CLOUDY    72  66  83 E7        30.19R                  
MAYPORT NAS    MOCLDY    80  67  64 E17       30.19R                  
JACKSONVILLE   FAIR      73  68  84 N3        30.19R                  
JAX NAS        FAIR      77  67  71 E8        30.19S                  
JAX CECIL      MOCLDY    72  68  88 CALM      30.19R                  
FERNANDINA BEA MOCLDY    79  68  67 E13       30.20S                  
ST AUGUSTINE   FAIR     N/A N/A N/A E15       30.20R                  
PALM COAST     MOCLDY    77  66  68 E13       30.18R                  

STATION/POSITION SKY/WX   TEMP    WIND        PRES    WAVE   SWELL
                          AIR SEA DIR/SP/G            HT/PER HT/PER
                          (F)     (DEG/KT/KT) (MB)    (FT/S) (FT/S)
SHELL POINT      NOT AVBL
KEATON BEACH               76      70/  8/  9 1021.8R
CEDAR KEY                  78      80/ 14/ 16 1021.4R
FERNANDINA                 84 81   90/  5/ 11 1023.5R
30.7N   81.3W                 82                N/A     5/11   2/11
MAYPORT                    80 82   80/ 11/ 16 1022.9R
31.4N   80.9W              80 81  110/ 16/ 19 1023.1R   5/ 6   3/ 8
ST AUGUSTINE               80 81  100/ 15/ 16 1022.3R

$$
FLZ040-043>046-052-053-057-058-063-144-210300-
INTERIOR CENTRAL FLORIDA
  
CITY           SKY/WX    TMP DP  RH WIND       PRES   REMARKS
OCALA          FAIR      76  67  73 NE3       30.17R                  
LEESBURG       FAIR      77  66  68 NE7       30.17R                  
SANFORD        MOCLDY    74  66  76 NE6       30.16R                  
ORLANDO EXEC   FAIR      75  65  70 NE6       30.15S                  
ORLANDO INTL   FAIR      75  65  70 NE8       30.15R                  
KISSIMMEE      FAIR      77  66  68 NE8       30.16R                  
WINTER HAVEN   FAIR      77  65  66 NE10      30.15R                  
LAKELAND       CLEAR     77  63  61 E12       30.14R                  
BARTOW           N/A     77  64  65 NE10      30.13R                  
SEBRING        FAIR      74  69  86 NE9       30.12R                  
OKEECHOBEE     FAIR      75  66  73 NE6       30.10R                  

$$
FLZ041-047-054-059-064-141-147-210300-
EAST CENTRAL FLORIDA
  
CITY           SKY/WX    TMP DP  RH WIND       PRES   REMARKS
DAYTONA BEACH  FAIR      78  69  73 E9        30.17R                  
DELAND         FAIR      72  66  83 NE5       30.16S                  
NEW SMYRNA BEA PTCLDY    79  66  65 E14G25    30.17R                  
JFK SPACE CTR  MOCLDY    79  68  69 E12       30.15R                  
CAPE CANAVERAL FAIR      80  70  71 E16G22    30.14R                  
PATRICK AFB    FAIR      80  70  70 E23G30    30.13R                  
MELBOURNE      FAIR      80  67  64 E17G28    30.13R                  
VERO BEACH     FAIR      81  65  58 E17       30.12R                  
FT PIERCE      CLOUDY    80  65  59 E15G24    30.11R                  
STUART         MOCLDY    81  64  57 E17G28    30.12R                  

STATION/POSITION SKY/WX   TEMP    WIND        PRES    WAVE   SWELL
                          AIR SEA DIR/SP/G            HT/PER HT/PER
                          (F)     (DEG/KT/KT) (MB)    (FT/S) (FT/S)
28.5N   80.2W              81 83   70/ 21/ 27 1021.2
28.9N   78.5W              79 81   70/ 21/ 27 1021.9R  13/13  11/13
TRIDENT PIER               80 82   70/ 15/ 21 1022.1R
28.4N   80.5W                 82                N/A     5/14   2/14
27.5N   80.2W                 82                N/A     9/14   7/14

$$
FLZ050-056-061-142-242-148-248-149-249-151-251-155-255-
160-260-210300-
WEST CENTRAL FLORIDA
  
CITY           SKY/WX    TMP DP  RH WIND       PRES   REMARKS
CRYSTAL RIVER  FAIR      73  66  78 CALM      30.16R                  
INVERNESS      FAIR      73  70  88 CALM      30.16R                  
BROOKSVILLE    FAIR      75  64  68 NE7       30.15R                  
CLEARWATER AIR FAIR      77  64  65 E6        30.12R                  
ST PETE CLEARW FAIR      81  64  56 E16G23    30.12R                  
TAMPA INTL     FAIR      79  64  60 E8        30.13R                  
TAMPA EXEC     FAIR      73  66  78 E8        30.14R                  
PLANT CITY     FAIR      77  66  69 NE7       30.15R                  
MACDILL AFB    FAIR      78  64  61 E15       30.11R                  
PETER O KNIGHT CLOUDY    79  66  65 E9        30.12R                  
ST PETERSBURG  FAIR      81  68  64 E25G33    30.11R                  
SARASOTA       FAIR      78  66  66 E9        30.08R                  
VENICE         FAIR      77  68  73 E16       30.09R                  

STATION/POSITION SKY/WX   TEMP    WIND        PRES    WAVE   SWELL
                          AIR SEA DIR/SP/G            HT/PER HT/PER
                          (F)     (DEG/KT/KT) (MB)    (FT/S) (FT/S)
27.3N   84.2W                 85                N/A     8/ 6
CLEARWATER BEACH           80 85   60/ 10/ 13 1019.9R
MIDDLE TAMPA BAY           80      90/ 17/ 20 1019.6R
VENICE                     78 85   60/ 11/ 14 1018.8R

$$
FLZ066-069-070-075>078-162-262-165-265-210300-
SOUTHWEST FLORIDA AND KEYS
  
CITY           SKY/WX    TMP DP  RH WIND       PRES   REMARKS
PUNTA GORDA    FAIR      75  70  84 NE10      30.10R                  
FT MYERS       FAIR      78  68  71 E10       30.07R                  
SOUTHWEST INTL FAIR      77  69  76 E13       30.08R                  
NAPLES         FAIR      80  70  71 NE14      30.05R                  
MARCO ISLAND   FAIR      78  70  76 NE10      30.06R                  
IMMOKALEE      MOCLDY    77  68  73 NE12      30.06R                  
MARATHON       MOCLDY    83  75  77 E18G28    29.99R HAZE             
KEY WEST NAS   MOCLDY    83  76  79 NE18G24   29.99R                  
KEY WEST INTL  FAIR      82  76  81 NE14G21   29.99R                  

STATION/POSITION SKY/WX   TEMP    WIND        PRES    WAVE   SWELL
                          AIR SEA DIR/SP/G            HT/PER HT/PER
                          (F)     (DEG/KT/KT) (MB)    (FT/S) (FT/S)
NAPLES                     80 84   60/ 10/ 15 1017.7R
26.0N   85.6W              83 85   70/ 19/ 27 1016.8
DRY TORTUGAS               82      80/ 28/ 31 1015.5R
SAND KEY                   82      80/ 25/ 31 1013.7
SOMBRERO KEY               83      70/ 26/ 31 1015.4
LONG KEY                   81                 1014.6

$$
FLZ067-068-071>074-168-172>174-210300-
SOUTHEAST FLORIDA 
  
CITY           SKY/WX    TMP DP  RH WIND       PRES   REMARKS
W PALM BEACH   MOCLDY    81  69  67 E21G29    30.09R                  
BOCA RATON     PTCLDY    82  68  61 E20G32    30.07R                  
FT LAUDER-EXEC FAIR      81  67  62 NE18G31   30.05R                  
FT LAUDERDALE  MOCLDY    81  68  64 E20G31    30.04R                  
POMPANO BEACH  MOCLDY    82  68  62 NE21G33   30.06R                  
PEMBROKE PINES CLOUDY    82  70  66 NE21G28   30.06R                  
OPA LOCKA      CLOUDY    80  73  79 NE15G24   30.05S                  
MIAMI          MOCLDY    83  69  62 NE17G28   30.04R                  
WEST KENDALL   RAIN      80  73  79 NE15      30.02S                  
HOMESTEAD      CLOUDY    81  73  78 E15G31    30.02R                  

STATION/POSITION SKY/WX   TEMP    WIND        PRES    WAVE   SWELL
                          AIR SEA DIR/SP/G            HT/PER HT/PER
                          (F)     (DEG/KT/KT) (MB)    (FT/S) (FT/S)
PORT EVERGLADES            82      50/ 22/ 28 1017.1R
VIRGINIA KEY               82 84   40/ 21/ 26 1016.4R
LAKE WORTH                 81 82   60/ 22/ 25 1019.6R
FOWEY ROCKS                82 83   60/ 30/ 33 1016.9R
SETTLEMENT POINT           80      60/ 24/ 29 1018.8R

$$